RH
98 91 81 75 76 76 74 76 74 75 74 72 76 79 78 74 75 72 71 72 72 72 72 73 73 72 72 73 75 78 80 75 73 74 67 71 75 77 77 72 74 72 82
94 85 81 76 75 76 75 76 75 73 72 72 76 74 71 70 73 70 70 71 71 72 72 72 73 73 74 70 71 71 69 71 76 80 67 69 70 78 80 83 78 80 80
89 84 83 79 74 73 75 76 74 72 70 73 74 72 70 70 71 69 70 70 71 72 73 74 72 68 72 69 68 68 73 73 73 80 77 86 80 75 74 76 76 78 80
87 88 87 82 75 73 73 74 72 69 68 72 72 75 71 70 69 69 70 70 72 74 72 69 70 67 68 71 70 67 76 79 74 80 83 81 78 71 71 68 76 76 83
89 90 85 78 74 73 73 72 71 68 68 70 76 72 69 69 68 68 70 72 73 74 73 70 68 68 70 73 71 72 77 77 77 82 85 87 89 69 75 73 76 74 78
96 88 78 76 73 72 71 70 70 67 68 71 72 70 68 67 68 70 70 72 72 73 73 73 69 71 76 73 74 77 79 79 81 87 90 85 87 78 75 71 72 72 75
96 93 82 76 73 73 72 71 69 69 68 71 71 70 67 67 68 71 73 74 75 72 71 74 72 75 76 77 76 77 80 81 87 88 87 88 86 82 73 72 72 72 71
95 95 87 76 74 74 72 72 71 70 69 72 71 69 69 70 73 74 73 75 74 70 70 73 75 76 76 77 77 77 78 80 83 90 89 87 82 74 71 73 74 74 68
92 96 93 89 77 74 74 74 73 69 69 71 71 71 72 74 77 73 75 75 74 72 71 74 76 77 78 77 76 77 80 83 89 88 77 84 82 76 74 72 74 75 74
96 96 95 93 92 91 89 75 72 67 69 70 73 76 79 79 78 78 78 79 74 73 78 76 77 78 78 77 79 82 85 87 90 88 88 86 83 77 73 76 75 76 76
95 98 97 94 95 94 94 88 71 67 71 78 83 80 82 88 85 79 76 74 74 73 78 79 80 81 80 78 81 84 89 92 88 84 85 86 81 76 77 77 78 76 77
98 99 98 98 96 96 89 92 88 88 88 90 91 86 88 89 84 75 74 74 74 75 76 80 76 78 84 90 87 89 92 92 83 79 80 83 80 77 78 78 78 78 78
88 87 97 98 98 95 96 95 96 94 93 92 83 88 86 86 82 84 81 82 83 76 78 84 80 82 87 90 91 89 88 86 83 80 83 82 79 77 78 78 78 78 77
94 86 96 97 98 96 95 96 95 97 91 83 79 86 84 84 81 82 84 81 84 81 86 91 87 89 89 90 88 91 87 85 82 80 84 82 80 76 76 76 76 76 76
96 94 97 97 98 97 96 97 97 96 84 83 80 88 84 85 83 84 83 81 83 83 83 89 89 91 88 91 90 89 84 84 82 80 74 76 79 76 76 76 76 75 74
87 91 93 97 96 95 96 96 97 94 86 87 80 85 84 82 85 84 86 85 85 85 88 92 92 91 94 86 87 90 89 82 82 83 81 75 75 74 74 75 72 70 71
83 84 92 94 94 95 96 95 95 94 78 85 80 82 80 78 84 86 88 87 85 85 88 87 92 93 92 90 91 86 88 84 82 85 81 77 75 71 68 69 67 66 66
80 87 89 82 90 93 96 96 91 89 84 82 81 78 79 77 83 86 92 85 84 87 87 92 95 96 95 92 90 90 83 78 82 83 81 78 78 71 67 64 62 61 60
78 87 90 88 92 91 95 94 90 84 84 82 82 80 77 79 80 86 89 87 84 86 86 83 88 91 94 95 91 94 91 82 80 74 78 77 76 73 74 75 70 60 58
75 82 86 86 93 95 96 95 93 91 88 86 85 83 77 83 82 88 88 89 85 87 88 87 95 94 95 95 84 89 93 87 81 80 77 71 75 74 73 78 76 71 60
72 81 86 87 93 94 96 96 95 94 92 90 88 84 82 83 85 87 87 91 86 85 88 88 89 94 96 90 90 78 88 80 78 80 76 73 74 76 74 75 75 73 72
74 78 83 84 91 90 88 92 92 94 92 88 87 87 83 88 91 87 89 91 94 94 90 90 90 96 95 93 93 93 93 83 80 77 78 75 76 76 75 72 72 75 74
73 77 78 82 87 86 87 93 95 94 94 92 89 88 85 86 89 90 86 93 94 95 92 90 89 89 96 94 84 90 96 96 84 78 80 77 78 79 77 77 74 78 76
68 70 77 80 88 83 91 89 91 94 94 92 88 87 85 87 86 90 89 91 94 95 94 87 83 86 94 95 93 94 91 82 96 88 79 77 75 73 78 76 74 73 72
61 70 77 86 89 86 91 88 88 94 91 91 90 90 92 90 87 86 91 92 94 97 88 88 87 90 86 95 96 97 95 89 83 81 84 80 73 75 79 80 76 73 72
63 77 86 86 88 86 89 89 90 90 91 97 94 95 93 93 89 90 86 89 92 92 90 86 89 91 90 93 96 96 97 94 91 80 79 78 70 74 75 77 77 75 74
Wind_Speed
4 6 11 12 12 11 12 10 11 12 12 11 9 8 8 8 8 8 8 7 7 6 6 6 5 3 7 4 3 9 11 8 7 6 4 9 6 7 4 7 9 7 8
8 7 11 11 10 9 10 9 9 9 10 9 8 9 7 7 7 7 7 7 7 7 6 6 7 8 8 7 5 1 3 3 7 12 8 8 5 10 14 13 6 7 5
10 8 8 11 10 8 7 7 7 7 7 7 7 7 8 7 7 7 7 6 6 6 7 7 8 8 8 7 7 3 2 6 7 14 9 4 3 9 10 12 11 10 8
12 8 7 11 11 9 7 6 5 5 4 5 5 6 8 8 7 7 6 5 6 7 7 6 7 8 8 8 6 2 5 9 11 12 5 4 3 7 8 10 12 12 9
9 8 9 13 10 8 8 7 5 3 3 4 6 7 8 7 7 6 6 8 9 8 7 6 6 7 9 9 7 6 9 9 8 7 4 2 2 5 5 9 10 12 14
7 6 10 13 10 7 5 4 4 2 3 5 6 7 7 7 8 8 9 9 9 8 7 6 7 10 12 13 12 12 10 9 9 6 4 4 2 2 6 9 9 8 11
7 5 7 11 10 9 7 4 1 1 2 4 7 8 7 7 7 9 10 11 12 8 6 10 11 12 12 15 16 13 12 11 5 4 4 3 3 6 9 7 9 10 11
7 5 6 11 10 8 6 5 2 1 3 5 6 7 9 9 9 7 8 10 12 8 7 11 13 14 15 15 15 14 12 12 7 6 4 3 5 10 10 10 10 8 8
6 6 5 5 8 9 6 4 2 2 3 5 8 8 9 10 11 9 10 11 12 8 12 15 15 15 16 16 16 15 15 14 7 4 6 3 8 10 9 9 9 8 7
5 4 5 4 3 4 3 5 2 2 4 5 7 9 11 11 9 10 10 13 16 13 15 17 16 17 17 17 17 16 16 15 8 6 4 4 9 10 9 10 10 8 6
5 4 4 4 4 5 4 3 2 2 5 8 8 10 8 4 5 7 9 12 14 11 13 15 17 18 18 17 18 18 14 5 7 6 4 7 8 9 9 8 9 8 8
8 6 5 4 4 4 3 2 1 3 3 4 4 6 3 5 5 5 5 10 11 13 13 16 18 17 13 6 6 12 5 7 7 8 7 15 16 16 12 10 10 9 9
10 8 7 6 5 5 3 2 0 1 2 3 5 5 4 4 3 3 2 3 3 7 4 6 7 5 8 6 6 7 8 7 6 6 10 16 17 18 18 16 15 14 15
11 13 8 7 6 5 3 3 3 1 0 2 3 4 3 3 4 4 3 4 4 3 5 4 5 6 8 8 8 9 9 8 6 6 11 18 17 18 18 18 18 17 17
12 10 10 7 6 5 5 3 2 2 1 1 3 4 3 3 4 3 3 3 4 3 4 5 5 5 7 8 7 8 10 11 10 6 6 19 17 19 18 18 18 18 18
10 11 10 9 6 5 5 5 3 2 2 1 2 3 4 3 3 3 3 3 4 3 3 3 5 5 6 7 9 8 8 10 10 10 7 9 18 19 20 20 19 18 18
12 10 11 10 6 6 5 5 3 3 2 2 1 3 2 2 3 3 2 2 3 3 5 5 5 6 6 6 8 7 7 9 9 10 8 8 9 17 18 17 16 17 17
10 11 9 9 8 7 5 4 3 3 3 2 2 2 3 1 1 2 3 3 2 3 4 4 4 5 6 5 5 5 6 8 10 10 9 7 7 7 12 18 17 16 16
11 10 10 10 9 9 5 3 3 4 3 3 2 2 4 2 2 2 2 2 3 3 3 4 3 4 5 5 6 4 5 6 8 8 9 10 10 8 6 14 17 15 16
10 9 10 9 8 7 4 3 1 1 3 3 3 2 4 2 3 2 2 2 3 3 3 3 3 4 3 5 7 6 5 5 7 7 7 8 8 8 8 9 7 8 14
13 12 12 11 9 8 3 3 2 3 2 3 3 5 4 4 3 3 2 2 2 2 3 4 3 5 3 4 4 6 5 6 8 6 6 7 8 7 8 7 6 6 7
15 15 14 14 11 10 7 3 3 3 2 2 2 3 4 4 3 3 3 3 3 3 4 3 3 2 2 1 3 2 2 2 6 6 4 6 8 6 7 7 8 8 7
16 16 16 16 14 12 10 4 2 2 1 1 2 2 4 4 5 4 4 3 3 2 3 3 4 4 3 2 3 2 2 2 3 3 5 4 6 5 5 6 7 7 7
18 13 12 12 13 12 11 9 8 5 4 3 3 3 4 5 5 4 4 4 4 3 3 3 4 3 3 3 0 1 3 4 3 3 2 3 4 4 5 4 4 6 7
14 14 9 11 12 11 13 11 9 5 4 3 2 4 4 4 5 5 5 4 4 4 3 4 4 4 2 2 3 2 2 1 3 3 3 1 2 3 3 3 3 3 5
12 14 14 13 13 12 13 12 12 11 8 5 4 4 3 3 3 5 5 4 4 4 5 4 4 5 4 3 3 3 3 3 3 3 3 2 1 1 1 1 1 2 2
Wind_Direction
174 154 143 139 133 124 119 108 103 103 99 87 79 78 76 65 61 54 44 39 40 34 26 9 352 326 277 315 140 169 197 233 131 122 74 62 56 62 111 87 58 41 43
133 141 146 141 131 124 119 110 98 91 87 84 68 56 48 50 51 44 38 36 29 17 4 341 326 317 320 331 329 240 217 136 134 145 158 142 110 83 92 86 89 77 64
134 142 146 142 134 130 123 110 102 92 85 79 72 51 40 39 33 33 33 23 9 356 333 325 326 328 332 329 327 343 2 71 50 152 133 75 84 94 113 127 120 105 78
138 139 145 147 147 141 136 118 106 93 78 58 47 48 28 27 22 19 7 358 345 332 330 343 345 349 5 2 347 13 63 77 90 100 79 57 68 118 133 141 138 124 112
135 136 155 155 156 152 144 137 127 120 71 31 16 28 22 18 15 6 344 343 333 333 336 360 3 16 29 35 38 87 83 64 92 83 82 73 70 124 100 151 131 142 142
116 128 159 159 156 147 138 135 134 106 46 10 358 8 16 15 2 348 336 326 321 340 348 17 20 53 59 42 66 91 84 71 83 78 81 105 99 114 98 117 138 148 151
122 140 143 159 158 153 152 144 114 45 17 354 348 355 355 6 352 343 321 316 316 333 4 36 77 67 68 69 74 71 78 77 81 82 94 96 92 114 103 111 125 116 135
132 130 152 157 161 164 166 160 174 335 338 334 346 0 351 348 341 324 325 336 330 352 46 76 87 76 80 76 72 68 72 76 79 80 76 86 98 100 106 108 116 127 133
131 128 144 159 163 167 170 177 196 289 320 334 344 346 343 336 351 348 359 346 354 39 77 97 90 88 79 74 75 75 76 75 71 79 84 68 95 97 117 125 125 118 132
132 138 152 169 164 148 176 182 214 274 310 329 344 343 337 346 359 350 353 16 33 82 88 101 97 85 80 78 75 69 64 62 57 70 79 85 85 91 89 93 99 97 107
151 163 171 173 175 164 178 218 215 291 324 350 340 330 352 333 7 355 11 16 40 69 89 105 94 84 80 77 77 72 57 38 51 53 53 75 82 92 91 84 80 96 100
175 180 181 181 183 175 169 136 5 341 340 334 330 326 346 355 351 26 30 29 44 47 62 95 92 85 80 71 66 69 61 48 50 54 60 70 76 78 86 83 84 86 89
175 183 183 177 180 181 171 155 211 304 331 332 352 340 344 4 353 23 33 44 29 48 61 69 82 75 82 76 67 65 63 62 59 57 56 65 69 75 78 83 84 86 88
180 187 183 180 175 188 167 181 184 228 284 340 343 346 20 10 8 24 35 36 58 19 78 69 82 86 81 74 66 67 63 61 57 61 59 62 67 72 75 76 79 78 75
182 186 188 180 183 184 179 194 199 220 210 304 353 355 49 16 25 19 33 52 54 68 82 96 95 87 86 79 62 66 75 69 61 57 58 64 65 66 66 71 74 74 72
186 191 184 188 188 177 187 189 201 217 234 291 338 10 37 47 6 17 29 63 63 64 85 96 108 99 87 90 77 58 65 72 70 63 53 45 58 61 66 66 66 66 63
193 184 191 186 181 190 192 197 195 213 207 239 310 333 353 70 30 358 45 74 96 94 90 91 91 96 92 87 86 67 60 60 64 65 60 55 37 61 66 65 64 63 67
180 187 182 191 187 193 198 188 197 215 223 240 263 320 329 69 99 23 61 62 66 93 110 103 112 96 103 93 90 80 78 70 62 61 62 61 46 41 47 67 65 66 62
185 177 182 186 185 194 191 185 203 205 226 235 252 278 308 292 159 121 78 66 73 69 95 114 94 117 118 106 107 88 78 69 67 66 60 61 52 45 45 45 47 61 67
182 184 183 185 180 176 149 141 212 190 248 232 226 221 268 255 164 124 110 85 93 99 98 94 92 77 108 116 94 73 65 70 74 64 63 62 56 44 46 48 40 34 60
179 173 186 179 181 167 157 166 211 219 209 236 216 210 235 218 175 150 162 124 103 117 118 118 94 96 90 119 103 84 60 70 77 65 59 64 59 44 41 48 46 43 39
184 182 183 189 180 186 181 166 164 158 215 221 194 192 223 193 165 182 172 154 170 131 118 132 131 116 99 167 120 119 131 96 59 64 40 65 58 50 36 40 53 47 45
188 185 189 187 184 186 180 139 109 113 92 219 210 186 211 190 180 198 192 148 133 130 144 160 152 141 148 233 173 131 131 153 115 54 34 52 60 55 45 25 49 50 45
189 181 187 189 184 186 169 175 184 179 183 203 214 177 187 204 204 190 210 177 159 159 151 165 157 150 136 176 222 247 41 137 141 139 63 38 65 57 49 30 33 55 53
164 176 178 181 188 185 180 182 187 187 195 174 187 198 188 208 209 191 194 200 192 176 184 168 158 164 183 166 184 155 113 91 116 133 140 163 62 47 67 52 15 49 58
148 126 218 189 192 185 181 182 188 198 194 182 185 198 207 196 211 209 204 206 200 197 193 192 188 179 188 213 190 196 164 178 165 147 117 121 147 85 47 79 34 20 61